N216TB TJPS-TIST

Flight info

Callsign N216TB
Flight time N/A
Altitude 7000
Route DCT GANBO DCT CHAKA DCT KUTHO DCT JAQYY DCT
Aircraft B58/L-L/C

Departure

Time 2026-04-17 12:41
Airport Mercedita International Airport (TJPS)

Arrival

Time N/A
Airport Cyril E. King Airport (TIST)
Time Latitude Longitude Altitude Speed Heading
2026-04-17 12:29 18.01009 -66.56301 31 ft 0 kts 319°
2026-04-17 12:34 18.01010 -66.56301 31 ft 2 kts 319°
2026-04-17 12:34 18.01020 -66.56328 33 ft 0 kts 20°
2026-04-17 12:37 18.01014 -66.56330 31 ft 2 kts 20°
2026-04-17 12:38 18.00999 -66.56336 31 ft 2 kts 20°
2026-04-17 12:38 18.00991 -66.56339 31 ft 0 kts 20°
2026-04-17 12:38 18.00990 -66.56320 31 ft 7 kts 172°
2026-04-17 12:39 18.00965 -66.56352 31 ft 7 kts 287°
2026-04-17 12:39 18.00997 -66.56394 31 ft 8 kts 270°
2026-04-17 12:39 18.00973 -66.56382 31 ft 8 kts 86°
2026-04-17 12:39 18.00963 -66.56329 31 ft 8 kts 107°
2026-04-17 12:40 18.00936 -66.56283 31 ft 7 kts 150°
2026-04-17 12:40 18.00888 -66.56270 31 ft 7 kts 188°
2026-04-17 12:40 18.00871 -66.56276 32 ft 0 kts 204°
2026-04-17 12:41 18.00836 -66.56285 32 ft 10 kts 163°
2026-04-17 12:41 18.00780 -66.56119 30 ft 66 kts 107°
2026-04-17 12:41 18.00524 -66.55444 221 ft 124 kts 112°
2026-04-17 12:41 18.00140 -66.54510 647 ft 155 kts 111°
2026-04-17 12:42 17.99756 -66.53381 933 ft 170 kts 108°
2026-04-17 12:42 17.99627 -66.52147 1228 ft 177 kts 77°
2026-04-17 12:42 18.00334 -66.51097 1500 ft 183 kts 34°
2026-04-17 12:42 18.01524 -66.50624 1778 ft 184 kts 18°
2026-04-17 12:43 18.02742 -66.50274 2077 ft 181 kts 19°
2026-04-17 12:43 18.02895 -66.50230 2106 ft 181 kts 18°
2026-04-17 12:43 18.03585 -66.50033 2275 ft 180 kts 18°
2026-04-17 12:44 18.04786 -66.49698 2562 ft 183 kts 18°
2026-04-17 12:44 18.06019 -66.49368 2896 ft 180 kts 18°
2026-04-17 12:44 18.07215 -66.49045 3276 ft 177 kts 18°
2026-04-17 12:44 18.08407 -66.48721 3633 ft 177 kts 17°
2026-04-17 12:45 18.09591 -66.48387 4002 ft 175 kts 23°
2026-04-17 12:45 18.10564 -66.47687 4360 ft 168 kts 59°
2026-04-17 12:45 18.10926 -66.46536 4740 ft 168 kts 79°
2026-04-17 12:45 18.11163 -66.45338 5103 ft 167 kts 79°
2026-04-17 12:46 18.11405 -66.44172 5459 ft 164 kts 79°
2026-04-17 12:46 18.11644 -66.43002 5824 ft 163 kts 79°
2026-04-17 12:46 18.11835 -66.41827 6209 ft 165 kts 82°
2026-04-17 12:46 18.12161 -66.40664 6550 ft 166 kts 66°
2026-04-17 12:47 18.12770 -66.39653 6892 ft 162 kts 57°
2026-04-17 12:47 18.13458 -66.38682 7025 ft 173 kts 56°
2026-04-17 12:47 18.14190 -66.37642 7038 ft 178 kts 56°
2026-04-17 12:47 18.14927 -66.36600 7029 ft 177 kts 56°
2026-04-17 12:48 18.15171 -66.36261 7031 ft 176 kts 56°
2026-04-17 12:48 18.15692 -66.35532 7014 ft 171 kts 55°
2026-04-17 12:48 18.16396 -66.34542 7029 ft 169 kts 56°
2026-04-17 12:48 18.17096 -66.33539 7025 ft 171 kts 56°
2026-04-17 12:49 18.17802 -66.32539 7027 ft 171 kts 56°
2026-04-17 12:49 18.18511 -66.31538 7022 ft 171 kts 56°
2026-04-17 12:49 18.19217 -66.30542 7030 ft 169 kts 56°
2026-04-17 12:49 18.19923 -66.29551 7034 ft 169 kts 55°
2026-04-17 12:50 18.20614 -66.28567 7028 ft 170 kts 56°
2026-04-17 12:50 18.21319 -66.27570 7025 ft 170 kts 56°
2026-04-17 12:50 18.22022 -66.26572 7026 ft 169 kts 56°
2026-04-17 12:50 18.22720 -66.25582 7023 ft 168 kts 56°
2026-04-17 12:51 18.23419 -66.24585 7023 ft 169 kts 56°
2026-04-17 12:51 18.24129 -66.23584 7026 ft 171 kts 55°
2026-04-17 12:51 18.24841 -66.22582 7025 ft 171 kts 56°
2026-04-17 12:51 18.25550 -66.21573 7029 ft 172 kts 56°
2026-04-17 12:52 18.26266 -66.20563 7028 ft 172 kts 55°
2026-04-17 12:52 18.26824 -66.19481 7024 ft 167 kts 75°
2026-04-17 12:52 18.27049 -66.18306 7021 ft 166 kts 80°
2026-04-17 12:52 18.27275 -66.17112 7032 ft 167 kts 80°
2026-04-17 12:53 18.27503 -66.15906 7028 ft 168 kts 79°
2026-04-17 12:53 18.27733 -66.14701 7026 ft 168 kts 80°
2026-04-17 12:53 18.27953 -66.13497 7025 ft 167 kts 81°
2026-04-17 12:53 18.28174 -66.12299 7020 ft 167 kts 80°
2026-04-17 12:54 18.28397 -66.11107 7020 ft 165 kts 80°
2026-04-17 12:54 18.28619 -66.09915 7030 ft 167 kts 79°
2026-04-17 12:54 18.28849 -66.08710 7021 ft 168 kts 80°
2026-04-17 12:54 18.29066 -66.07498 7030 ft 169 kts 81°
2026-04-17 12:55 18.29289 -66.06301 7033 ft 169 kts 80°
2026-04-17 12:55 18.29514 -66.05086 7034 ft 169 kts 81°
2026-04-17 12:55 18.29740 -66.03866 7027 ft 170 kts 80°
2026-04-17 12:55 18.29965 -66.02650 7029 ft 169 kts 80°
2026-04-17 12:56 18.30193 -66.01441 7027 ft 168 kts 81°
2026-04-17 12:56 18.30415 -66.00239 7026 ft 167 kts 80°
2026-04-17 12:56 18.30636 -65.99043 7024 ft 166 kts 80°
2026-04-17 12:56 18.30858 -65.97853 7022 ft 165 kts 80°
2026-04-17 12:57 18.31077 -65.96661 7023 ft 167 kts 80°
2026-04-17 12:57 18.31296 -65.95475 7026 ft 167 kts 80°
2026-04-17 12:57 18.31519 -65.94279 7025 ft 166 kts 80°
2026-04-17 12:57 18.31740 -65.93086 7022 ft 166 kts 81°
2026-04-17 12:58 18.31959 -65.91892 7023 ft 167 kts 80°
2026-04-17 12:58 18.32181 -65.90692 7028 ft 167 kts 80°
2026-04-17 12:58 18.32402 -65.89493 7028 ft 167 kts 80°
2026-04-17 12:58 18.32624 -65.88292 7021 ft 166 kts 81°
2026-04-17 12:59 18.32843 -65.87106 7025 ft 165 kts 80°
2026-04-17 12:59 18.33064 -65.85915 7026 ft 166 kts 80°
2026-04-17 12:59 18.33284 -65.84728 7021 ft 168 kts 80°
2026-04-17 12:59 18.33506 -65.83519 7023 ft 168 kts 80°
2026-04-17 13:00 18.33726 -65.82318 7023 ft 167 kts 81°
2026-04-17 13:00 18.33946 -65.81125 7023 ft 166 kts 80°
2026-04-17 13:00 18.34165 -65.79933 7020 ft 166 kts 80°
2026-04-17 13:00 18.34384 -65.78742 7023 ft 165 kts 80°
2026-04-17 13:01 18.34604 -65.77557 7025 ft 166 kts 81°
2026-04-17 13:01 18.34824 -65.76362 7031 ft 168 kts 81°
2026-04-17 13:01 18.35042 -65.75173 7023 ft 167 kts 80°
2026-04-17 13:01 18.35263 -65.73975 7034 ft 167 kts 81°
2026-04-17 13:02 18.35481 -65.72778 7028 ft 166 kts 81°
2026-04-17 13:02 18.35699 -65.71584 7023 ft 165 kts 80°
2026-04-17 13:02 18.35919 -65.70403 7020 ft 164 kts 80°
2026-04-17 13:02 18.36138 -65.69223 7020 ft 163 kts 81°
2026-04-17 13:03 18.36353 -65.68050 7020 ft 163 kts 81°
2026-04-17 13:03 18.36569 -65.66875 7018 ft 164 kts 81°
2026-04-17 13:03 18.36781 -65.65698 7027 ft 164 kts 81°
2026-04-17 13:03 18.36995 -65.64535 7030 ft 164 kts 80°
2026-04-17 13:04 18.37212 -65.63351 7028 ft 165 kts 81°
2026-04-17 13:04 18.37211 -65.62157 7031 ft 163 kts 98°
2026-04-17 13:04 18.37082 -65.60969 7034 ft 163 kts 95°
2026-04-17 13:04 18.36973 -65.59776 7032 ft 164 kts 96°
2026-04-17 13:05 18.36857 -65.58583 7030 ft 164 kts 96°
2026-04-17 13:05 18.36740 -65.57390 7030 ft 164 kts 96°
2026-04-17 13:05 18.36625 -65.56211 7030 ft 164 kts 96°
2026-04-17 13:05 18.36506 -65.55013 7031 ft 165 kts 96°
2026-04-17 13:06 18.36389 -65.53813 7031 ft 165 kts 96°
2026-04-17 13:06 18.36271 -65.52612 7035 ft 166 kts 96°
2026-04-17 13:06 18.36152 -65.51409 7030 ft 165 kts 96°
2026-04-17 13:06 18.36033 -65.50209 7027 ft 165 kts 96°
2026-04-17 13:07 18.35915 -65.49010 7024 ft 164 kts 96°
2026-04-17 13:07 18.35798 -65.47815 7026 ft 164 kts 96°
2026-04-17 13:07 18.35681 -65.46638 7027 ft 164 kts 96°
2026-04-17 13:07 18.35564 -65.45447 7025 ft 164 kts 96°
2026-04-17 13:08 18.35446 -65.44257 7025 ft 163 kts 96°
2026-04-17 13:08 18.35329 -65.43069 7022 ft 163 kts 96°
2026-04-17 13:08 18.35212 -65.41883 7017 ft 163 kts 96°
2026-04-17 13:08 18.35094 -65.40695 7020 ft 163 kts 97°
2026-04-17 13:09 18.34976 -65.39505 7019 ft 163 kts 96°
2026-04-17 13:09 18.34858 -65.38317 7017 ft 163 kts 96°
2026-04-17 13:09 18.34739 -65.37127 7017 ft 164 kts 96°
2026-04-17 13:09 18.34621 -65.35932 7019 ft 164 kts 96°
2026-04-17 13:10 18.34504 -65.34757 7018 ft 164 kts 96°
2026-04-17 13:10 18.34386 -65.33564 7021 ft 164 kts 96°
2026-04-17 13:10 18.34267 -65.32373 7019 ft 163 kts 96°
2026-04-17 13:10 18.34149 -65.31186 7019 ft 163 kts 96°
2026-04-17 13:11 18.34031 -65.29999 7020 ft 163 kts 96°
2026-04-17 13:11 18.33912 -65.28809 7021 ft 163 kts 96°
2026-04-17 13:11 18.33794 -65.27618 7023 ft 164 kts 96°
2026-04-17 13:11 18.33675 -65.26420 7021 ft 165 kts 96°
2026-04-17 13:12 18.33554 -65.25214 7031 ft 168 kts 96°
2026-04-17 13:12 18.33311 -65.22789 7021 ft 166 kts 96°
2026-04-17 13:12 18.33192 -65.21585 7021 ft 166 kts 96°
2026-04-17 13:13 18.33070 -65.20381 7016 ft 165 kts 96°
2026-04-17 13:13 18.32950 -65.19185 7018 ft 164 kts 96°
2026-04-17 13:13 18.32837 -65.17990 7019 ft 164 kts 93°
2026-04-17 13:13 18.32889 -65.16791 7015 ft 164 kts 88°
2026-04-17 13:14 18.32943 -65.15590 7018 ft 164 kts 89°
2026-04-17 13:14 18.32992 -65.14393 7016 ft 164 kts 89°
2026-04-17 13:14 18.33043 -65.13210 7016 ft 164 kts 89°
2026-04-17 13:14 18.33095 -65.12009 7018 ft 164 kts 89°
2026-04-17 13:15 18.33147 -65.10808 7016 ft 164 kts 89°
2026-04-17 13:15 18.33199 -65.09610 7017 ft 164 kts 89°
2026-04-17 13:15 18.33252 -65.08413 7017 ft 163 kts 88°
2026-04-17 13:15 18.33303 -65.07222 7020 ft 163 kts 88°
2026-04-17 13:16 18.33354 -65.06030 7019 ft 163 kts 89°
2026-04-17 13:16 18.33406 -65.04840 7019 ft 163 kts 89°
2026-04-17 13:16 18.33457 -65.03660 7021 ft 163 kts 89°
2026-04-17 13:16 18.33508 -65.02467 7019 ft 164 kts 89°
2026-04-17 13:17 18.33560 -65.01272 7017 ft 163 kts 89°
2026-04-17 13:17 18.33611 -65.00078 7018 ft 163 kts 89°
2026-04-17 13:17 18.33662 -64.98882 7018 ft 164 kts 89°
2026-04-17 13:17 18.33713 -64.97683 7030 ft 165 kts 89°
2026-04-17 13:18 18.33763 -64.96465 7031 ft 167 kts 89°
2026-04-17 13:18 18.33796 -64.95309 6829 ft 148 kts 89°